Regional Weather Roundup
Issued by NWS Upton, NY

Home | Current Version | Previous Version | Text Only | Print | Product List | Glossary On
Versions: 1 2 3 4 5 6 7 8 9 10 11 12 13 14 15 16 17 18 19 20 21 22 23 24 25 26 27 28 29 30
000
ASUS41 KOKX 252004
RWROKX

REGIONAL WEATHER ROUNDUP
NATIONAL WEATHER SERVICE NEW YORK NY
400 PM EDT THU AUG 25 2016

NOTE: "FAIR" INDICATES FEW OR NO CLOUDS BELOW 12,000 FEET WITH NO
SIGNIFICANT WEATHER AND/OR OBSTRUCTIONS TO VISIBILITY.

NYZ071-072-176-178-NJZ106-104-252100-
NEW YORK CITY METRO AREA

CITY           SKY/WX    TMP DP  RH WIND       PRES   REMARKS
Central Park     N/A     84  66  54 MISG        N/A
LaGuardia APRT PTSUNNY   84  67  56 S18       30.01F
Kennedy INTL   PTSUNNY   79  72  79 S22G30    30.04F
Newark/Liberty CLOUDY    85  67  54 S9        29.99F
Bronx Bot Gard   N/A     82  64  54 SE1       30.03R
Wall St Helipt CLOUDY    82  68  61 S9G16     30.02F
Teterboro      CLOUDY    84  64  50 S9        29.99F
$$

NYZ177-179-078>081-252100-
LONG ISLAND NEW YORK

CITY           SKY/WX    TMP DP  RH WIND       PRES   REMARKS
Farmingdale    CLOUDY    82  65  56 S18G25    30.04F
MacArthur/ISP  CLOUDY    79  66  64 S20G26    30.04F
Shirley        PTSUNNY   78  67  68 S17G25    30.05F
Riverhead      NOT AVBL
Westhampton    CLOUDY    78  67  68 S12G20    30.06F
Southampton      N/A     77  70  78 SW9       30.01F
Bridgehampton    N/A     79  70  73 S2        30.04F
East Hampton   FAIR      77  67  71 S14G21    30.04F
Montauk          N/A     77  68  73 VRB7      30.06F
$$

NYZ052-065-067-252100-
HUDSON VALLEY

CITY           SKY/WX    TMP DP  RH WIND       PRES   REMARKS
White Plains   MOSUNNY   80  65  59 S12       30.02F
Newburgh       PTSUNNY   79  72  78 SW7       30.02F
Montgomery     LGT RAIN  80  72  76 SW5       30.00F
Poughkeepsie   CLOUDY    80  67  64 S3        29.99S
Albany         LGT RAIN  74  72  93 CALM      29.97F FOG
$$

NJZ001-105-106-008-010-013-015-019>022-104-252100-
NEW JERSEY

CITY           SKY/WX    TMP DP  RH WIND       PRES   REMARKS
Newark/Liberty CLOUDY    85  67  54 S9        29.99F
Teterboro      CLOUDY    84  64  50 S9        29.99F
Caldwell       CLOUDY    84  68  58 VRB5      30.00F
Morristown     CLOUDY    84  70  61 SW8       30.01S
Somerville     CLOUDY    84  69  60 VRB6      29.99F
Linden         CLOUDY    87  65  49 CALM      30.01F
Sussex         CLOUDY    80  72  76 SW6       30.02S
Abdover          N/A     78  71  79 VRB3      30.03S
Trenton        CLOUDY    84  68  58 SW10      30.01F
Millville      PTSUNNY   82  72  71 S9G17     30.05S
Atlantic City  SUNNY     84  65  52 S18       30.05F
Wrightstown    PTSUNNY   85  70  60 SW14      30.00S HX  90
Toms River     MOSUNNY   86  71  60 SW14G21   30.03F HX  91
Belmar         MOSUNNY   84  70  62 SE12G17   30.03
$$

PAZ047>061-062-071-252100-
EASTERN PENNSYLVANIA

CITY           SKY/WX    TMP DP  RH WIND       PRES   REMARKS
Philadelphia   CLOUDY    85  70  60 S13       30.03S
Allentown      CLOUDY    82  70  66 W13       30.02F
Scranton       CLOUDY    74  71  91 SW8       30.04R FOG
$$

CTZ002-004>006-009-010-012-RIZ004-006-007-MAZ004-011-015-252100-
SOUTHERN NEW ENGLAND
 IN CT

CITY           SKY/WX    TMP DP  RH WIND       PRES   REMARKS
Bradley INTL   CLOUDY    84  65  52 S15       30.00F
Hartford       SUNNY     86  65  49 SW16      30.00F
Danbury        MOSUNNY   80  65  59 S12       30.04F
Wtrbury/Oxford MOSUNNY  N/A N/A N/A SW12G17   30.07F
Bridgeport     MOSUNNY   82  67  60 S13       30.02F
Meriden        SUNNY     84  64  50 S17G23    30.01F
New Haven      MOSUNNY   81  67  62 S13       30.03F
Chester        FAIR      79  64  61 S14G21    30.04F
Groton         MOSUNNY   79  68  69 S12       30.04F
Wilimantic     MOSUNNY   83  66  56 S12G21    30.02F

 IN RI

CITY           SKY/WX    TMP DP  RH WIND       PRES   REMARKS
Providence     PTSUNNY   82  64  54 SW12G22   30.03F
Block Island   MOSUNNY   77  68  73 SW16      30.06F
Westerly       MOSUNNY   79  63  57 S15       30.06F
 IN MA

CITY           SKY/WX    TMP DP  RH WIND       PRES   REMARKS
Boston         PTSUNNY   87  62  43 SW16      29.97F
Worcester      MOSUNNY   80  63  55 SW16G22   30.03F
Westfield      CLOUDY    82  67  60 S10       29.98F
Provincetown   MOSUNNY   76  65  68 SW14      30.04S
Nantucket      CLOUDY    74  67  78 S13       30.07F
$$

ANZ330-335-338-340-345-350-353-355-252100-
COASTAL MARINE OBSERVATIONS


STATION/POSITION TIME  SKY/WX   TEMP    WIND        PRES    VSBY  WAVE
                                AIR SEA DIR/SP/G                  HT/PER
                 (UTC)          (F)     (DEG/KT/KT) (MB)    (MI)  (FT/S)
NY HARB ENTRANCE 1850            76 75  180/ 19/ 23 1016.9          4/ 5
20S FIRE ISLAND  1850            76 75  200/ 16/ 19 1017.8          3/10
GREAT SOUTH BAY  1900            75 79  200/ 14/ 16   N/A
23 SSW MONTAUK P 1850            76 75  220/ 14/ 17 1018.7          3/10
15 E BARNEGAT LI 1900               76                N/A           3/10
HUDSON CANYON    1850            77 78              1019.0          3/10
KINGS POINT      1900            78 76              1016.7
EXECUTION ROCKS  1900            80     170/ 12/ 16   N/A
CENTRAL LI SOUND 1900            77 75  200/ 12/ 16   N/A           1/ 3
EASTERN LI SOUND 1900            75 71  200/ 10/ 12   N/A
ROBBINS REEF     1900            77     150/ 19/ 21 1015.7
$$


>>>>>>>>>>>>>>>>>>>>>>>>>>>> KEY <<<<<<<<<<<<<<<<<<<<<<<<<<<
>                                                          <
>     SKY/WX - Sky Condition/Present Weather               <
>     TMP    - Temperature in Fahrenheit                   <
>     DP     - Dew Point in Fahrenheit                     <
>     RH     - Relative Humidity in Percent                <
>     WIND   - Direction (from) and Speed in MPH           <
>     PRES   - Mean Sea Level Pressure (inches of Hg)      <
>     WCI    - Wind Chill Index                            <
>     VSB    - VISIBILITY IN MILES                         <
>     HX     - HEAT INDEX                                  <
>     TC     - TEMPERATURE IN CELSIUS                      <
>     VRB    - VARIABLE WIND DIRECTION                     <
>                                                          <
>>>>>>>>>>>>>>>>>>>>>>>>>>>> KEY <<<<<<<<<<<<<<<<<<<<<<<<<<<




USA.gov is the U.S. government's official web portal to all federal, state and local government web resources and services.